Flight Track Log - Related Links

Times and Time Zones

All times are in EST time to prevent confusion due to time zone crossing. See the EJA583 flight status page for this flight to view local times or setup timezone preferences in your user account.


Time Position Orientation Groundspeed Altitude Reporting Facility
EST Latitude Longitude Course Direction KTS MPH feet Rate Location/Type
Tue 02:54:37 PM 39.1167 -94.6000 237° Southwest 154 177 1,700  Level Kansas City TRACON
Tue 02:55:13 PM 39.1000 -94.6333 237° Southwest 186 214 3,700 3,250 Climbing Kansas City TRACON
Tue 02:55:49 PM 39.0817 -94.6544 222° Southwest 184 212 5,600 3,093 Climbing Kansas City Center
Tue 02:56:50 PM 39.0317 -94.5894 135° Southeast 281 323 8,700 2,927 Climbing Kansas City Center
Tue 02:57:52 PM 39.0458 -94.4797 81° East 321 369 11,600 2,952 Climbing Kansas City Center
Tue 02:58:54 PM 39.0647 -94.3464 80° East 339 390 14,800 2,646 Climbing Kansas City Center
Tue 02:59:59 PM 39.0819 -94.2278 79° East 350 403 17,200 2,333 Climbing Kansas City Center
Tue 03:01:00 PM 39.0933 -94.0789 84° East 376 433 19,700 2,293 Climbing Kansas City Center
Tue 03:02:02 PM 39.0836 -93.9472 95° East 384 442 21,900 2,081 Climbing Kansas City Center
Tue 03:03:04 PM 39.0733 -93.7861 95° East 408 470 24,000 1,790 Climbing Kansas City Center
Tue 03:04:06 PM 39.0642 -93.6383 95° East 429 494 25,600 1,707 Climbing Kansas City Center
Tue 03:05:07 PM 39.0519 -93.4611 95° East 445 512 27,500 1,659 Climbing Kansas City Center
Tue 03:06:09 PM 39.0414 -93.3083 95° East 453 521 29,000 1,355 Climbing Kansas City Center
Tue 03:07:11 PM 39.0292 -93.1433 95° East 462 532 30,300 1,210 Climbing Kansas City Center
Tue 03:08:13 PM 39.0169 -92.9733 95° East 470 541 31,500 1,258 Climbing Kansas City Center
Tue 03:09:15 PM 38.9831 -92.7669 102° East 479 551 32,900 1,463 Climbing Kansas City Center
Tue 03:10:16 PM 38.9342 -92.6119 112° Southeast 472 543 34,500 1,561 Climbing Kansas City Center
Tue 03:11:18 PM 38.8861 -92.4572 112° Southeast 468 539 36,100 1,500 Climbing Kansas City Center
Tue 03:12:20 PM 38.8400 -92.3086 112° Southeast 456 525 37,600 1,258 Climbing Kansas City Center
Tue 03:13:22 PM 38.7844 -92.1703 117° Southeast 440 506 38,700 1,210 Climbing Kansas City Center
Tue 03:14:24 PM 38.7167 -92.0500 126° Southeast 419 482 40,100 1,113 Climbing Kansas City Center
Tue 03:15:26 PM 38.6564 -91.9211 121° Southeast 418 481 41,000 435 Climbing Kansas City Center
Tue 03:16:28 PM 38.6000 -91.7764 116° Southeast 440 506 41,000  Level Kansas City Center
Tue 03:17:30 PM 38.5378 -91.6256 118° Southeast 461 531 41,000  Level Kansas City Center
Tue 03:18:31 PM 38.4642 -91.4428 117° Southeast 474 545 41,000  Level Kansas City Center
Tue 03:19:33 PM 38.4019 -91.2933 118° Southeast 476 548 41,000  Level Kansas City Center
Tue 03:20:35 PM 38.3406 -91.1433 118° Southeast 479 551 41,000  Level Kansas City Center
Tue 03:21:37 PM 38.2800 -90.9972 118° Southeast 476 548 41,000  Level Kansas City Center
Tue 03:22:39 PM 38.2186 -90.8506 118° Southeast 473 544 41,000  Level Kansas City Center
Tue 03:23:41 PM 38.1581 -90.7028 117° Southeast 475 547 41,000  Level Kansas City Center
Tue 03:24:43 PM 38.0850 -90.5281 118° Southeast 473 544 41,000  Level Kansas City Center
Tue 03:25:45 PM 38.0225 -90.3819 118° Southeast 475 547 41,000  Level Kansas City Center
Tue 03:26:47 PM 37.9614 -90.2344 118° Southeast 475 547 41,000  Level Kansas City Center
Tue 03:27:49 PM 37.8997 -90.0878 118° Southeast 475 547 41,000  Level Kansas City Center
Tue 03:28:51 PM 37.8383 -89.9425 118° Southeast 473 544 41,000  Level Kansas City Center
Tue 03:29:53 PM 37.7764 -89.7978 118° Southeast 472 543 41,000  Level Kansas City Center
Tue 03:30:55 PM 37.7022 -89.6214 118° Southeast 474 545 41,000  Level Kansas City Center
Tue 03:31:57 PM 37.6386 -89.4761 119° Southeast 475 547 41,000  Level Kansas City Center
Tue 03:32:58 PM 37.5700 -89.3178 119° Southeast 478 550 41,000  Level Kansas City Center
Tue 03:34:00 PM 37.5053 -89.1703 119° Southeast 479 551 41,000  Level Kansas City Center
Tue 03:35:02 PM 37.4408 -89.0250 119° Southeast 476 548 41,000  Level Kansas City Center
Tue 03:36:04 PM 37.3783 -88.8817 119° Southeast 470 541 41,000  Level Kansas City Center
Tue 03:36:35 PM 37.3428 -88.7969 118° Southeast 476 548 41,000  Level Memphis Center
Tue 03:37:35 PM 37.2806 -88.6522 118° Southeast 476 548 41,000  Level Memphis Center
Tue 03:38:35 PM 37.2161 -88.5075 119° Southeast 476 548 41,000  Level Memphis Center
Tue 03:40:12 PM 37.1092 -88.2775 120° Southeast 468 539 41,000  Level Kansas City Center
Tue 03:41:14 PM 37.0447 -88.1356 120° Southeast 467 537 41,000  Level Kansas City Center
Tue 03:42:16 PM 36.9811 -87.9914 119° Southeast 469 540 41,000  Level Kansas City Center
Tue 03:43:35 PM 36.8931 -87.7992 120° Southeast 477 549 41,000  Level Memphis Center
Tue 03:44:35 PM 36.8275 -87.6561 120° Southeast 477 549 41,000  Level Memphis Center
Tue 03:45:35 PM 36.7617 -87.5106 119° Southeast 477 549 41,000  Level Memphis Center
Tue 03:46:35 PM 36.6958 -87.3706 120° Southeast 477 549 41,000  Level Memphis Center
Tue 03:47:35 PM 36.6297 -87.2258 120° Southeast 477 549 41,000  Level Memphis Center
Tue 03:48:35 PM 36.5636 -87.0836 120° Southeast 477 549 41,000  Level Memphis Center
Tue 03:49:35 PM 36.4992 -86.9392 119° Southeast 477 549 41,000  Level Memphis Center
Tue 03:50:35 PM 36.4222 -86.7928 123° Southeast 477 549 41,000  Level Memphis Center
Tue 03:51:35 PM 36.3681 -86.6561 116° Southeast 488 562 41,000  Level Memphis Center
Tue 03:52:35 PM 36.2906 -86.5075 123° Southeast 483 556 41,000  Level Memphis Center
Tue 03:53:35 PM 36.2236 -86.3692 121° Southeast 472 543 41,000  Level Memphis Center
Tue 03:54:35 PM 36.1567 -86.2286 121° Southeast 472 543 41,000  Level Memphis Center
Tue 03:55:35 PM 36.0892 -86.0883 121° Southeast 477 549 41,000  Level Memphis Center
Tue 03:58:09 PM 35.9256 -85.7492 121° Southeast 456 525 41,000  Level Atlanta Center
Tue 03:59:09 PM 35.8583 -85.6119 121° Southeast 461 531 41,000  Level Atlanta Center
Tue 04:00:09 PM 35.7914 -85.4750 121° Southeast 461 531 41,000  Level Atlanta Center
Tue 04:01:09 PM 35.7219 -85.3381 122° Southeast 467 537 41,000  Level Atlanta Center
Tue 04:02:09 PM 35.6544 -85.2017 121° Southeast 466 536 41,000  Level Atlanta Center
Tue 04:03:09 PM 35.5786 -85.0472 121° Southeast 466 536 41,000  Level Atlanta Center
Tue 04:04:09 PM 35.5128 -84.9089 120° Southeast 466 536 41,000  Level Atlanta Center
Tue 04:05:09 PM 35.4450 -84.7731 121° Southeast 471 542 41,000  Level Atlanta Center
Tue 04:06:09 PM 35.3767 -84.6372 122° Southeast 471 542 41,000  Level Atlanta Center
Tue 04:07:09 PM 35.3086 -84.4994 121° Southeast 476 548 41,000  Level Atlanta Center
Tue 04:08:09 PM 35.2400 -84.3617 121° Southeast 476 548 41,000  Level Atlanta Center
Tue 04:09:09 PM 35.1694 -84.2267 123° Southeast 476 548 41,000  Level Atlanta Center
Tue 04:10:09 PM 35.1006 -84.0922 122° Southeast 476 548 41,000  Level Atlanta Center
Tue 04:11:09 PM 35.0297 -83.9525 122° Southeast 476 548 41,000  Level Atlanta Center
Tue 04:12:09 PM 34.9628 -83.8183 121° Southeast 476 548 41,000  Level Atlanta Center
Tue 04:13:09 PM 34.9042 -83.6867 118° Southeast 476 548 41,000  Level Atlanta Center
Tue 04:14:09 PM 34.8347 -83.5353 119° Southeast 471 542 41,000 -150 Level Atlanta Center
Tue 04:15:09 PM 34.7861 -83.4142 116° Southeast 459 528 40,700 -900 Descending Atlanta Center
Tue 04:16:09 PM 34.7269 -83.2681 116° Southeast 459 528 39,200 -1,700 Descending Atlanta Center
Tue 04:17:09 PM 34.6633 -83.1219 118° Southeast 475 547 37,300 -1,950 Descending Atlanta Center
Tue 04:18:09 PM 34.5972 -82.9714 118° Southeast 465 535 35,300 -1,150 Descending Atlanta Center
Tue 04:19:09 PM 34.5419 -82.8408 117° Southeast 447 514 35,000 -700 Descending Atlanta Center
Tue 04:20:09 PM 34.4819 -82.7008 117° Southeast 455 524 33,900 -1,450 Descending Atlanta Center
Tue 04:21:09 PM 34.4325 -82.5756 116° Southeast 466 536 32,100 -1,900 Descending Atlanta Center
Tue 04:22:09 PM 34.3889 -82.4303 110° East 461 531 30,100 -2,000 Descending Atlanta Center
Tue 04:23:09 PM 34.3742 -82.2744 96° East 456 525 28,100 -1,216 Descending Atlanta Center
Tue 04:24:42 PM 34.3550 -82.0272 95° East 456 525 27,000 -431 Descending Jacksonville Center
Tue 04:25:42 PM 34.3436 -81.8739 95° East 456 525 27,000  Level Jacksonville Center
Tue 04:26:42 PM 34.3317 -81.7183 95° East 463 533 27,000  Level Jacksonville Center
Tue 04:27:42 PM 34.3175 -81.5625 96° East 463 533 27,000 -50 Level Jacksonville Center
Tue 04:28:42 PM 34.2950 -81.3994 99° East 463 533 26,900  Descending Jacksonville Center
Tue 04:29:42 PM 34.1836 -81.3261 151° Southeast 421 484 27,000 50 Climbing Jacksonville Center
Tue 04:30:42 PM 34.0783 -81.2528 150° Southeast 415 478 27,000  Level Jacksonville Center
Tue 04:31:42 PM 33.9708 -81.1797 151° Southeast 431 496 27,000  Level Jacksonville Center
Tue 04:32:42 PM 33.8656 -81.1067 150° Southeast 436 502 27,000 -600 Level Jacksonville Center
Tue 04:33:42 PM 33.7475 -81.0267 151° Southeast 441 507 25,800 -1,350 Descending Jacksonville Center
Tue 04:34:42 PM 33.6378 -80.9517 150° Southeast 447 514 24,300 -1,550 Descending Jacksonville Center
Tue 04:35:42 PM 33.5325 -80.8792 150° Southeast 447 514 22,700 -1,850 Descending Jacksonville Center
Tue 04:36:42 PM 33.4311 -80.8119 151° Southeast 434 499 20,600 -2,050 Descending Jacksonville Center
Tue 04:37:42 PM 33.3361 -80.7444 149° Southeast 419 482 18,600 -2,050 Descending Jacksonville Center
Tue 04:38:42 PM 33.2453 -80.6797 149° Southeast 400 460 16,500 -2,050 Descending Jacksonville Center
Tue 04:39:42 PM 33.1953 -80.5692 118° Southeast 361 415 14,500 -1,950 Descending Jacksonville Center
Tue 04:40:42 PM 33.1575 -80.4561 112° Southeast 361 415 12,600 -1,800 Descending Jacksonville Center
Tue 04:41:42 PM 33.0956 -80.3858 136° Southeast 351 404 10,900 -1,600 Descending Jacksonville Center
Tue 04:42:42 PM 33.0264 -80.3606 163° South 275 316 9,400 -1,400 Descending Jacksonville Center
Tue 04:43:42 PM 32.9569 -80.3428 168° South 269 310 8,100 -1,300 Descending Jacksonville Center
Tue 04:44:42 PM 32.8814 -80.3225 167° South 264 304 6,800 -1,300 Descending Jacksonville Center
Tue 04:45:42 PM 32.8103 -80.3072 170° South 264 304 5,500 -1,300 Descending Jacksonville Center
Tue 04:47:00 PM 32.7492 -80.1369 125° Southeast  Level Estimated

Login

Don't have an account? Register now (free) for customized features, flight alerts, and more!